Weather History for KMGW - July, 2014

Change the Weather History Date:

Saturday, July 5, 2014

  Actual Average Record
Temperature  
Mean Temperature 65 °F 73 °F  
Max Temperature 80 °F 84 °F 96 °F (1949)
Min Temperature 50 °F 63 °F 45 °F (1979)
Degree Days  
Heating Degree Days 0 0  
Month to date heating degree days 0 0  
Since 1 June heating degree days 2 31  
Since 1 July heating degree days 0 0  
Cooling Degree Days 0 8  
Month to date cooling degree days 40 40  
Year to date cooling degree days 389 269  
Since 1 June cooling degree days 280 202  
Growing Degree Days 14 (Base 50)    
Moisture  
Dew Point 48 °F    
Average Humidity 56    
Maximum Humidity 86    
Minimum Humidity 26    
Precipitation  
Precipitation 0.00 in 0.15 in 1.93 in (1969)
Month to date precipitation 0.00 0.75  
Year to date precipitation 20.01 22.05  
Sea Level Pressure  
Sea Level Pressure 30.28 in    
Wind  
Wind Speed 2 mph (NNE)    
Max Wind Speed 9 mph    
Max Gust Speed 13 mph    
Visibility 10 miles    
Events      
T = Trace of Precipitation, MM = Missing Value Source: NWS Daily Summary

Daily Weather History Graph

Daily Weather History Graph

Search for Another Location

Airport or City:

Trip Planner

Search our weather history database for the weather conditions in past years. The results will help you decide how hot, cold, wet, or windy it might be!

Date:

Astronomy

Jul. 05, 2014 Rise Set
Actual Time 5:57 AM EDT 8:50 PM EDT
Civil Twilight 5:25 AM EDT 9:22 PM EDT
Nautical Twilight 4:44 AM EDT 10:03 PM EDT
Astronomical Twilight 3:58 AM EDT 10:49 PM EDT
Moon 1:49 PM EDT (7/5) 12:43 AM EDT (7/5)
Length of Visible Light 15h 57m
Length of Day
14h 52m
First Quarter, 52% of the Moon is Illuminated
Jul 5
First Quarter
Jul 12
Full
Jul 18
Last Quarter
Jul 26
New
Aug 3
First Quarter

Hourly Weather History & Observations

Time (EDT) Temp. Dew Point Humidity Pressure Visibility Wind Dir Wind Speed Gust Speed Precip Events Conditions
12:53 AM 57.0 °F 48.9 °F 74% 30.30 in 10.0 mi Calm Calm - N/A   Clear
1:53 AM 55.0 °F 48.9 °F 80% 30.30 in 10.0 mi Calm Calm - N/A   Clear
2:53 AM 54.0 °F 48.0 °F 80% 30.30 in 9.0 mi Calm Calm - N/A   Clear
3:53 AM 53.1 °F 48.0 °F 83% 30.30 in 9.0 mi Calm Calm - N/A   Clear
4:53 AM 52.0 °F 46.9 °F 83% 30.31 in 8.0 mi Calm Calm - N/A   Clear
5:53 AM 50.0 °F 46.0 °F 86% 30.31 in 8.0 mi Calm Calm - N/A   Clear
6:53 AM 52.0 °F 46.9 °F 83% 30.32 in 10.0 mi Calm Calm - N/A   Clear
7:53 AM 55.9 °F 48.0 °F 75% 30.33 in 10.0 mi South 3.5 mph - N/A   Clear
8:53 AM 63.0 °F 50.0 °F 63% 30.35 in 10.0 mi Calm Calm - N/A   Clear
9:53 AM 66.9 °F 50.0 °F 54% 30.34 in 10.0 mi Calm Calm - N/A   Clear
10:53 AM 70.0 °F 48.0 °F 46% 30.32 in 10.0 mi Calm Calm - N/A   Clear
11:53 AM 73.0 °F 42.1 °F 33% 30.32 in 10.0 mi NNE 6.9 mph - N/A   Clear
12:53 PM 75.9 °F 45.0 °F 33% 30.30 in 10.0 mi North 6.9 mph - N/A   Clear
1:53 PM 77.0 °F 45.0 °F 32% 30.30 in 10.0 mi North 6.9 mph - N/A   Clear
2:53 PM 77.0 °F 39.9 °F 26% 30.28 in 10.0 mi Variable 3.5 mph - N/A   Clear
3:53 PM 79.0 °F 44.1 °F 29% 30.25 in 10.0 mi North 5.8 mph - N/A   Clear
4:53 PM 78.1 °F 44.1 °F 30% 30.24 in 10.0 mi SE 8.1 mph - N/A   Clear
5:53 PM 78.1 °F 46.9 °F 33% 30.23 in 10.0 mi Calm Calm - N/A   Clear
6:53 PM 77.0 °F 46.9 °F 34% 30.22 in 10.0 mi North 4.6 mph - N/A   Clear
7:53 PM 73.0 °F 48.0 °F 41% 30.22 in 10.0 mi Calm Calm - N/A   Clear
8:53 PM 69.1 °F 51.1 °F 53% 30.20 in 10.0 mi Calm Calm - N/A   Clear
9:53 PM 66.0 °F 53.1 °F 63% 30.19 in 10.0 mi Calm Calm - N/A   Clear
10:53 PM 63.0 °F 53.1 °F 70% 30.19 in 10.0 mi Calm Calm - N/A   Clear
11:53 PM 60.1 °F 53.1 °F 78% 30.19 in 10.0 mi Calm Calm - N/A   Clear